Weather in Apartado

Colombia     7°52′57″N   76°37′38″W
temp.,
°C
wind,
m/s
gust,
m/s
humid.,
%
clouds,
%
prec.,
mm/h
press.,
hPa
HPBL,
m
14 may, fri
fri1401:00+26nnw1291100 7.8 1009140
04:00+25nw2492100 3.7 1008130
07:00+26wnw1290100 6.4 1010102
10:00+28n3479100 0.4 1011715
13:00+29nnw4576100 0.6 1008634
16:00+28nnw4578100 0.5 1007500
19:00+27n3587100 1.6 1009297
22:00+26nne2390100 1.7 1010175
15 may, sat
sat1501:00+25s119295 4.5 1010119
04:00+25ssw119388 0.1 1010141
07:00+25ssw2393100 0.3 1011211
10:00+26sw348998 0.4 1012417
13:00+29sw1274100 1.4 1009656
16:00+27nnw3483100 0.6 1008338
19:00+26nnw3589100 2.6 1009328
22:00+26n118997 3.8 101198
16 may, sun
sun1601:00+25sse229495 4.1 1010125
04:00+24s239486 0.3 1009176
07:00+24s129461 0.4 1011198
10:00+26sw2290100 0.8 1012454
13:00+27s2385100 1.9 1011447
16:00+26ssw2390100 3.1 1009254
19:00+25ssw2491100 3.8 1011180
22:00+25s3592100 0.2 1012262
17 may, mon
mon1701:00+24s359418 0.2 1011261
04:00+23s359460 0.0 1010220
07:00+24s3593100 0.0 1012241
10:00+27s347797 0.0 1012513
13:00+30sw136120 0.0 1009802
16:00+28nw447996 0.7 1008188
19:00+26n2287100 6.1 101062
22:00+25se2288100 6.2 101296
18 may, tue
tue1801:00+25sse3593100 6.6 1011237
04:00+24s479599 1.1 1010371
07:00+24ssw369568 1.1 1012371
10:00+27ssw468369 0.1 1013691
13:00+28ssw457351 0.3 1011835
16:00+27sse587888 0.1 1009681
19:00+25s498784 1.2 1011517
22:00+25ssw51088100 0.0 1012554